Weather in Dongguan

China     23°02′39″N   113°45′20″E
temp.,
°C
wind,
m/s
gust,
m/s
humid.,
%
clouds,
%
prec.,
mm/h
press.,
hPa
HPBL,
m
17 june, thu
thu1723:00+29s3775100 0.0 1007777
02:00+28s378295 0.3 1006653
05:00+28s258511 0.8 1006242
08:00+30s34752 1.4 1008699
11:00+33ssw345548 0.0 10071549
14:00+34s555267 0.1 10061586
17:00+33s56602 0.0 1005977
20:00+30s47732 0.0 1006669
18 june, fri
fri1823:00+29s37774 0.0 1007758
02:00+29ssw37825 0.0 1006689
05:00+28ssw25865 0.7 1006352
08:00+30sw35745 2.3 1007697
11:00+34sw3353100 0.0 10071376
14:00+36ssw4544100 0.0 10042003
17:00+34s565771 0.0 1003780
20:00+31s4870100 0.0 1004503
19 june, sat
sat1923:00+30sse3576100 0.1 1006373
02:00+29ssw3777100 0.6 1004482
05:00+28ssw2581100 0.3 1004330
08:00+30ssw2468100 0.3 1005703
11:00+34sw455292 0.0 10041387
14:00+37sw5641100 0.0 10022274
17:00+35s7749100 0.0 1000827
20:00+32s5961100 0.0 1002701
20 june, sun
sun2023:00+31s3666100 0.0 1003595
02:00+29s3578100 0.1 1002491
05:00+29ssw2480100 0.5 1002252
08:00+31s23685 0.6 1003636
11:00+35sw354645 0.0 10021605
14:00+38ssw553879 0.0 9992429
17:00+35s565097 0.0 9981008
20:00+32s5759100 0.0 1000647
21 june, mon
mon2123:00+31s3569100 0.0 1001505
02:00+30s3575100 0.3 1000519
05:00+29s247997 0.2 1000343
08:00+31sse226868 1.7 1001534
11:00+35ssw3447100 0.0 10001549
14:00+38ssw443974 0.0 9982426
17:00+34s5753100 0.1 998696
20:00+31sse376899 1.2 1000620